Regional Weather Roundup
Issued by NWS Portland, ME

Current Version | Previous Version | Text Only | Print | Product List | Glossary Off
Versions: 1 2 3 4 5 6 7 8 9 10 11 12 13 14 15 16 17 18 19 20 21 22 23 24 25 26 27 28 29 30 31 32 33 34 35 36 37 38 39 40 41 42 43 44 45 46 47 48 49 50
673 ASUS41 KGYX 222105 RWRGYX WEATHER ROUNDUP FOR MAINE AND NEW HAMPSHIRE NATIONAL WEATHER SERVICE GRAY ME 500 PM EDT SAT JUL 22 2017 MEZ002-005-006-010-012-015-018-020-021-024-026-027-029-222200- MAINE CITY SKY/WX TMP DP RH WIND PRES REMARKS PORTLAND PTSUNNY 80 64 58 SE5 29.76F SANFORD N/A 84 62 47 W7 29.78F BAR HARBOR PTSUNNY 75 60 59 SW13 29.74F WISCASSET SUNNY 83 63 50 S9 29.77F ROCKLAND MOSUNNY 77 61 57 SW12G20 29.76F FRYEBURG MOSUNNY 82 60 47 CALM 29.78F LEWISTONAUBURN MOSUNNY 84 57 39 VRB7 29.77F AUGUSTA SUNNY 82 53 36 NW9 29.77F WATERVILLE MOSUNNY 80 55 42 NW8 29.75F BANGOR PTSUNNY 82 50 32 NW14 29.75F GREENVILLE N/A 70 46 42 NW8 29.79S MILLINOCKET SUNNY 75 41 29 NW15G23 29.77S HOULTON SUNNY 72 45 37 NW9 29.74S PRESQUE ISLE SUNNY 68 38 33 W16 29.77F FRENCHVILLE MOSUNNY 63 38 39 NW12G22 29.77F CARIBOU SUNNY 67 38 34 NW13G22 29.76S $$ NHZ002-005-008-009-011-012-014-222200- NEW HAMPSHIRE CITY SKY/WX TMP DP RH WIND PRES REMARKS PORTSMOUTH PTSUNNY 83 60 45 SW8 29.77F ROCHESTER MOSUNNY 83 60 45 CALM 29.78F NASHUA CLOUDY 82 62 50 VRB6 29.80 MANCHESTER CLOUDY 84 57 39 W7 29.78F CONCORD MOSUNNY 83 59 44 SW10 29.79F LACONIA CLOUDY 81 63 54 W3 29.80F PLYMOUTH FAIR 80 61 53 CALM 29.79S BERLIN PTSUNNY 80 54 40 N10 29.82F WHITEFIELD MOSUNNY 80 56 43 NW9 29.81F JAFFREY CLOUDY 78 63 59 SW3 29.85F KEENE CLOUDY 79 67 66 S9 29.82F LEBANON PTSUNNY 82 62 50 W6 29.79F MT WASHINGTON CLOUDY 52 48 87 W30G43 N/A $$ VTZ005-007-008-222200- VERMONT CITY SKY/WX TMP DP RH WIND PRES REMARKS ST JOHNSBURY N/A 81 59 47 MISG 29.78F MONTPELIER MOSUNNY 76 63 64 NW6 29.86S BURLINGTON PTSUNNY 78 57 48 N9 29.82S $$ MAZ007-012-024-CTZ003-RIZ002-NYZ038-NYZ072-222200- SOUTHERN NEW ENGLAND AND NY CITY SKY/WX TMP DP RH WIND PRES REMARKS BOSTON CLOUDY 77 64 64 SE7 29.80S WORCESTER CLOUDY 78 61 55 W6 29.84F NANTUCKET CLOUDY 71 65 81 SE6 29.82F PROVIDENCE CLOUDY 81 65 58 S7 29.81F HARTFORD CLOUDY 83 64 52 SW6 29.80F ALBANY LGT RAIN 75 65 70 N6 29.83F NEW YORK CITY CLOUDY 88 66 48 NE12 29.77F HX 90 $$ ANZ081-ANZ082-ANZ150-NHZ014-MEZ023>029-222200- COASTAL MARINE OBSERVATIONS STATION/POSITION TIME TEMP WIND PRES WAVE AIR SEA DIR/SP/G HT/PER (UTC) (F) (DEG/KT/KT) (MB) (FT/S) MOUNT DESERT ROC 2100 63 1007.9F MATINICUS ROCK 2000 65 220/ 20/ 20 1008.1F ISLE OF SHOALS 2000 76 180/ 14/ 14 1008.7F JEFFREYS LEDGE 2006 68 N/A 1/10 CASHES LEDGE BUO 1950 74 71 1009.4 2/ 8 GEORGES BANK BUO 1950 65 64 1009.1 3/ 7 $$ .............KEY.............. WCI - WIND CHILL TC - TEMPERATURE IN CELSIUS VSB - VISIBILITY IN MILES HX - HEAT INDEX FAIR- INDICATES FEW OR NO CLOUDS BELOW 12,000 FT, WITH NO SIGNIFICANT WEATHER AND/OR OBSTRUCTIONS TO VISIBILITY.

USA.gov is the U.S. government's official web portal to all federal, state and local government web resources and services.